星链-31656 (STARLINK-31656)

导读

STARLINK-31656是美国星链星座的成员卫星,于2024年7月28日发射升空,星链计划是太空探索技术公司(SpaceX)打造的大型低轨卫星互联网星座,该卫星主要为全球偏远地区、海洋、航空等场景提供高速低延迟的宽带互联网服务,补充完善星链星座的全球网络覆盖能力。

基本信息
目录编号:
60286
目录名称:
STARLINK-31656
国际标识:
2024-132J
轨道中心:
EARTH
卫星名称:
星链-31656 (STARLINK-31656)
卫星全名:
星链-31656 (STARLINK-31656)
卫星状态:
在轨 (已飞行768 天)
发射日期:
2024-07-28 UTC
国别 :
美国 (US)
星等 :
--
轨道信息
数据来源 国际轨道数据 AOE轨道数据
星历时间 2026-09-03T22:08:32+0800
21小时前
查看轨道信息
2026-09-02T06:00:00+0800
2天前
查看轨道信息
半长轴 6840.855km 6840.88km
偏心率 0.0001278 0.0001151
轨道倾角 53.160° 53.160°
近地点辐角 69.685° 84.545°
升交点赤经 304.976° 312.795°
平近点角 290.429° 31.359°
近地点 461.843km 461.955km
远地点 463.593km 463.531km
周期 93.848分钟 93.849分钟
每日圈数 15.343953 15.343869
详细信息
卫星平台:
Starlink v2.0 mini
运营商:
太空探索技术公司
运营商所在国:
美国
制造商(研发单位):
太空探索技术公司
制造商所在国:
美国
使用方式:
暂无
卫星简介
星链(Starlink)计划是由太空探索技术公司(SpaceX)提出的一个巨型低轨卫星互联网星座项目,计划在2019年至2024年间在太空搭建由约1.2万颗卫星组成的“星链”网络,其中1584颗将部署在地球上空550千米处的近地轨道,并从2020年开始工作。该卫星仍在工作。
2D轨道图
3D轨道图
轨道高度分析图
轨道倾角分析图
轨道综合分析图
查看轨道综合分析图
交会数据列表
事件ID 空间交会对象 最接近时刻(TCA) 交会距离 交会风险概率(CRP) 交会风险指数(CRI) 操作
CDM_260905-160906-028606-538821
2026-09-05T
16:09:50+0000
2.514 km
极远距离
1.736778E-6 低风险 0.4
CDM_260905-174704-941806-028622
2026-09-05T
17:47:11+0000
2.782 km
极远距离
1.316409E-6 低风险 0.37
CDM_260905-145205-382806-028621
2026-09-05T
14:52:04+0000
2.911 km
极远距离
1.00031E-6 低风险 0.35